Location: Devore Heights
(34.2372°N, 117.4156°W)
Time: 07:25:49
(UTC+00:00)

ARIANE 6 FM1 Upper Stage - Pass Details

Date: 17 August 2024
Orbit: 567 x 594 km, 62.0° (Epoch: 06 September)

Event Time Altitude Azimuth Distance (km) Brightness Sun altitude
Rises 12:32:41 0° 188° (S) 2,772 5.9 -8.7°
Reaches altitude 10° 12:35:06 10° 177° (S) 1,883 5.2 -8.2°
Maximum altitude 12:38:49 30° 116° (ESE) 1,055 4.6 -7.5°
Drops below altitude 10° 12:42:35 10° 55° (NE) 1,910 6.9 -6.8°
Sets 12:45:03 0° 44° (NE) 2,819 7.6 -6.3°
